Lake Charles, LA

2:01 AM CST on December 13, 2017 (GMT -0600)
Chennault International

Weather History for KCWF - February, 2013

Change the Weather History Date:

Sunday, February 17, 2013

  Actual Average Record
Temperature  
Mean Temperature 51 °F -  
Max Temperature 66 °F 65 °F 77 °F (2000)
Min Temperature 36 °F 49 °F 32 °F (2007)
Degree Days  
Heating Degree Days 14    
Growing Degree Days 1 (Base 50)    
Moisture  
Dew Point 39 °F    
Average Humidity 77    
Maximum Humidity 91    
Minimum Humidity 42    
Precipitation  
Precipitation 0.00 in - - ()
Sea Level Pressure  
Sea Level Pressure 30.24 in    
Wind  
Wind Speed 3 mph (SSE)    
Max Wind Speed 18 mph    
Max Gust Speed 25 mph    
Visibility 10 miles    
Events      
Averages and records for this station are not official NWS values.
T = Trace of Precipitation, MM = Missing Value Source: NWS Daily Summary

Daily Weather History Graph

Daily Weather History Graph

Search for Another Location

Airport or City:

Trip Planner

Search our weather history database for the weather conditions in past years. The results will help you decide how hot, cold, wet, or windy it might be!

Date:

Astronomy

Feb. 17, 2013 Rise Set
Actual Time 6:50 AM CST 6:02 PM CST
Civil Twilight 6:26 AM CST 6:27 PM CST
Nautical Twilight 5:58 AM CST 6:55 PM CST
Astronomical Twilight 5:30 AM CST 7:23 PM CST
Moon 11:17 AM CST (2/17) 12:26 AM CST (2/17)
Length of Visible Light 12h 01m
Length of Day
11h 12m
Waxing Crescent, 49% of the Moon is Illuminated
Feb 17
Waxing Crescent
Feb 17
First Quarter
Feb 25
Full
Mar 4
Last Quarter
Mar 11
New

Hourly Weather History & Observations

Time (CST) Temp. Windchill Dew Point Humidity Pressure Visibility Wind Dir Wind Speed Gust Speed Precip Events Conditions
12:15 AM 39.0 °F - 34.0 °F 82% 30.29 in 10.0 mi Calm Calm - N/A   Clear
12:35 AM 38.3 °F - 34.7 °F 87% 30.29 in 10.0 mi Calm Calm - N/A   Clear
12:55 AM 37.8 °F - 35.1 °F 90% 30.29 in 10.0 mi Calm Calm - N/A   Clear
1:15 AM 37.0 °F - 34.7 °F 91% 30.29 in 10.0 mi Calm Calm - N/A   Clear
1:35 AM 38.3 °F - 34.9 °F 87% 30.29 in 10.0 mi Calm Calm - N/A   Clear
1:55 AM 38.7 °F - 34.9 °F 86% 30.28 in 10.0 mi Calm Calm - N/A   Clear
2:15 AM 36.7 °F - 34.0 °F 90% 30.28 in 10.0 mi Calm Calm - N/A   Clear
2:35 AM 36.9 °F - 34.5 °F 91% 30.28 in 10.0 mi Calm Calm - N/A   Clear
2:55 AM 37.9 °F - 34.7 °F 88% 30.28 in 10.0 mi Calm Calm - N/A   Clear
3:15 AM 38.5 °F - 34.7 °F 86% 30.28 in 10.0 mi Calm Calm - N/A   Clear
3:35 AM 38.5 °F - 34.7 °F 86% 30.28 in 10.0 mi Calm Calm - N/A   Clear
3:55 AM 38.7 °F 36.3 °F 34.5 °F 85% 30.27 in 10.0 mi East 3.5 mph - N/A   Clear
4:15 AM 39.0 °F - 34.5 °F 84% 30.27 in 10.0 mi Calm Calm - N/A   Clear
4:35 AM 38.3 °F - 33.6 °F 83% 30.28 in 10.0 mi Calm Calm - N/A   Clear
4:55 AM 39.2 °F - 33.8 °F 81% 30.28 in 10.0 mi Calm Calm - N/A   Clear
5:15 AM 38.7 °F - 33.6 °F 82% 30.28 in 10.0 mi Calm Calm - N/A   Clear
5:35 AM 39.2 °F - 33.8 °F 81% 30.28 in 10.0 mi Calm Calm - N/A   Clear
5:55 AM 39.0 °F - 34.3 °F 83% 30.28 in 10.0 mi Calm Calm - N/A   Clear
6:00 AM 39.2 °F - 33.8 °F 81% 30.28 in 10.0 mi Calm Calm - N/A   Clear
6:50 AM 39.2 °F - 35.6 °F 87% 30.28 in 10.0 mi Calm Calm - N/A   Clear
7:50 AM 42.8 °F - 39.2 °F 87% 30.29 in 10.0 mi Calm Calm - N/A   Clear
8:50 AM 51.8 °F - 44.6 °F 76% 30.30 in 10.0 mi ESE 4.6 mph - N/A   Clear
9:56 AM 59.0 °F - 44.6 °F 59% 30.30 in 10.0 mi SSE 6.9 mph - N/A   Clear
10:58 AM 64.4 °F - 42.8 °F 45% 30.29 in 10.0 mi South 11.5 mph 20.7 mph N/A   Clear
11:50 AM 64.4 °F - 41.0 °F 42% 30.27 in 10.0 mi South 11.5 mph 20.7 mph N/A   Clear
12:58 PM 66.2 °F - 42.8 °F 43% 30.24 in 10.0 mi SSW 12.7 mph 20.7 mph N/A   Scattered Clouds
1:50 PM 66.2 °F - 42.8 °F 43% 30.22 in 10.0 mi South 17.3 mph 25.3 mph N/A   Scattered Clouds
2:50 PM 66.2 °F - 42.8 °F 43% 30.21 in 10.0 mi South 18.4 mph 25.3 mph N/A   Scattered Clouds
3:55 PM 64.4 °F - 41.0 °F 42% 30.19 in 10.0 mi ESE 16.1 mph - N/A   Scattered Clouds
4:50 PM 62.6 °F - 42.8 °F 48% 30.19 in 10.0 mi South 16.1 mph - N/A   Scattered Clouds
5:50 PM 59.0 °F - 44.6 °F 59% 30.18 in 10.0 mi South 10.4 mph 16.1 mph N/A   Clear
6:45 PM 51.8 °F - 44.6 °F 76% 30.17 in 10.0 mi SE 8.1 mph - N/A   Clear
7:50 PM 48.2 °F - 44.6 °F 87% 30.17 in 10.0 mi SE 6.9 mph - N/A   Clear
8:52 PM 48.2 °F - 44.6 °F 87% 30.18 in 10.0 mi SSE 5.8 mph - N/A   Clear
9:47 PM 48.2 °F - 44.6 °F 87% 30.18 in 10.0 mi SSE 6.9 mph - N/A   Clear
10:15 PM 49.5 °F - 45.5 °F 86% 30.18 in 10.0 mi SSE 8.1 mph - N/A   Clear
10:35 PM 50.2 °F - 45.7 °F 85% 30.17 in 10.0 mi SE 8.1 mph - N/A   Clear
10:55 PM 50.2 °F - 45.3 °F 83% 30.17 in 10.0 mi SSE 6.9 mph - N/A   Clear
11:15 PM 50.2 °F - 45.5 °F 84% 30.17 in 10.0 mi SSE 5.8 mph - N/A   Scattered Clouds
11:35 PM 50.2 °F - 45.7 °F 85% 30.16 in 10.0 mi SE 8.1 mph - N/A   Scattered Clouds
11:55 PM 51.1 °F - 46.4 °F 84% 30.16 in 10.0 mi SE 8.1 mph - N/A   Clear